| time (UTC) | temp F | wind direction | speed MPH | gust MPH | rain 1hr in | rain 24hr in | rain mn in | humidity % | barometer mb |
| 20260508202106 | 56 | 272 | 4.0 | 8.0 | 0.00 | 0.00 | 0.00 | 44 | 975.9 |
| 20260508201606 | 56 | 279 | 5.0 | 7.0 | 0.00 | 0.00 | 0.00 | 43 | 976.0 |
| 20260508201106 | 56 | 261 | 2.0 | 5.0 | 0.00 | 0.00 | 0.00 | 44 | 976.0 |
| 20260508200606 | 57 | 208 | 3.0 | 7.0 | 0.00 | 0.00 | 0.00 | 42 | 976.0 |
| 20260508200105 | 57 | 252 | 5.0 | 7.0 | 0.00 | 0.00 | 0.00 | 42 | 976.1 |
| 20260508195605 | 57 | 269 | 6.0 | 10.0 | 0.00 | 0.00 | 0.00 | 43 | 976.1 |
| 20260508195105 | 57 | 257 | 5.0 | 8.0 | 0.00 | 0.00 | 0.00 | 43 | 976.2 |
| 20260508194605 | 57 | 182 | 5.0 | 7.0 | 0.00 | 0.00 | 0.00 | 44 | 976.3 |
| 20260508194105 | 57 | 198 | 3.0 | 5.0 | 0.00 | 0.00 | 0.00 | 45 | 976.3 |
| 20260508193605 | 57 | 277 | 9.0 | 14.0 | 0.00 | 0.00 | 0.00 | 44 | 976.3 |
| 20260508193104 | 57 | 193 | 4.0 | 6.0 | 0.00 | 0.00 | 0.00 | 40 | 976.4 |
| 20260508192604 | 57 | 189 | 4.0 | 6.0 | 0.00 | 0.00 | 0.00 | 41 | 976.4 |
| 20260508192104 | 57 | 186 | 4.0 | 8.0 | 0.00 | 0.00 | 0.00 | 40 | 976.5 |
| 20260508191604 | 57 | 241 | 4.0 | 8.0 | 0.00 | 0.00 | 0.00 | 42 | 976.5 |
| 20260508191103 | 57 | 226 | 5.0 | 8.0 | 0.00 | 0.00 | 0.00 | 39 | 976.6 |
| 20260508190603 | 58 | 258 | 3.0 | 10.0 | 0.00 | 0.00 | 0.00 | 37 | 976.7 |
| 20260508190103 | 58 | 207 | 4.0 | 5.0 | 0.00 | 0.00 | 0.00 | 36 | 976.7 |
| 20260508185042 | 58 | 300 | 6.0 | 8.0 | 0.00 | 0.00 | 0.00 | 22 | 976.7 |
| 20260508184542 | 58 | 323 | 2.0 | 6.0 | 0.00 | 0.00 | 0.00 | 22 | 976.7 |
| 20260508184042 | 58 | 242 | 5.0 | 9.0 | 0.00 | 0.00 | 0.00 | 24 | 976.8 |
| 20260508183542 | 57 | 321 | 6.0 | 8.0 | 0.00 | 0.00 | 0.00 | 24 | 976.9 |
| 20260508182520 | 57 | 342 | 6.0 | 9.0 | 0.00 | 0.00 | 0.00 | 24 | 977.1 |
| 20260508182020 | 57 | 350 | 8.0 | 12.0 | 0.00 | 0.00 | 0.00 | 25 | 977.1 |
| 20260508181520 | 56 | 337 | 6.0 | 8.0 | 0.00 | 0.00 | 0.00 | 26 | 977.1 |
| 20260508181020 | 56 | 293 | 9.0 | 12.0 | 0.00 | 0.00 | 0.00 | 24 | 977.2 |
| 20260508180519 | 56 | 247 | 3.0 | 4.0 | 0.00 | 0.00 | 0.00 | 25 | 977.3 |
| 20260508180019 | 56 | 305 | 6.0 | 9.0 | 0.00 | 0.00 | 0.00 | 25 | 977.4 |
| 20260508175519 | 56 | 329 | 3.0 | 6.0 | 0.00 | 0.00 | 0.00 | 27 | 977.4 |
| 20260508175019 | 57 | 332 | 7.0 | 10.0 | 0.00 | 0.00 | 0.00 | 27 | 977.4 |
| 20260508174519 | 56 | 304 | 7.0 | 11.0 | 0.00 | 0.00 | 0.00 | 27 | 977.4 |
| 20260508174019 | 56 | 340 | 5.0 | 7.0 | 0.00 | 0.00 | 0.00 | 26 | 977.5 |
| 20260508173519 | 56 | 30 | 4.0 | 7.0 | 0.00 | 0.00 | 0.00 | 24 | 977.6 |
| 20260508173018 | 55 | 312 | 6.0 | 9.0 | 0.00 | 0.00 | 0.00 | 26 | 977.7 |
| 20260508172518 | 56 | 324 | 8.0 | 12.0 | 0.00 | 0.00 | 0.00 | 25 | 977.7 |
| 20260508172018 | 55 | 345 | 6.0 | 10.0 | 0.00 | 0.00 | 0.00 | 25 | 977.7 |
| 20260508171518 | 55 | 318 | 4.0 | 6.0 | 0.00 | 0.00 | 0.00 | 28 | 977.8 |
| 20260508171018 | 54 | 336 | 4.0 | 6.0 | 0.00 | 0.00 | 0.00 | 27 | 977.8 |
| 20260508170517 | 55 | 321 | 2.0 | 4.0 | 0.00 | 0.00 | 0.00 | 28 | 977.8 |
| 20260508170017 | 54 | 187 | 4.0 | 5.0 | 0.00 | 0.00 | 0.00 | 31 | 977.9 |
| 20260508165517 | 54 | 312 | 6.0 | 8.0 | 0.00 | 0.00 | 0.00 | 30 | 977.9 |
| 20260508165017 | 54 | 326 | 5.0 | 9.0 | 0.00 | 0.00 | 0.00 | 31 | 978.0 |
| 20260508164516 | 54 | 11 | 3.0 | 6.0 | 0.00 | 0.00 | 0.00 | 29 | 978.1 |
| 20260508164016 | 54 | 279 | 8.0 | 13.0 | 0.00 | 0.00 | 0.00 | 28 | 978.2 |
| 20260508163515 | 54 | 317 | 7.0 | 9.0 | 0.00 | 0.00 | 0.00 | 29 | 978.2 |
| 20260508163015 | 55 | 269 | 4.0 | 8.0 | 0.00 | 0.00 | 0.00 | 32 | 978.2 |
| 20260508162515 | 54 | 229 | 3.0 | 5.0 | 0.00 | 0.00 | 0.00 | 33 | 978.3 |
| 20260508162015 | 54 | 290 | 3.0 | 4.0 | 0.00 | 0.00 | 0.00 | 32 | 978.4 |
| 20260508161515 | 54 | 291 | 4.0 | 7.0 | 0.00 | 0.00 | 0.00 | 31 | 978.5 |
| 20260508161015 | 54 | 321 | 4.0 | 5.0 | 0.00 | 0.00 | 0.00 | 30 | 978.5 |
| 20260508160514 | 53 | 268 | 7.0 | 13.0 | 0.00 | 0.00 | 0.00 | 31 | 978.6 |
| 20260508160015 | 53 | 282 | 4.0 | 6.0 | 0.00 | 0.00 | 0.00 | 32 | 978.7 |
| 20260508155514 | 53 | 342 | 4.0 | 6.0 | 0.00 | 0.00 | 0.00 | 32 | 978.7 |
| 20260508155014 | 53 | 294 | 6.0 | 9.0 | 0.00 | 0.00 | 0.00 | 33 | 978.7 |
| 20260508154513 | 53 | 259 | 9.0 | 13.0 | 0.00 | 0.00 | 0.00 | 34 | 978.6 |
| 20260508153452 | 52 | 257 | 5.0 | 7.0 | 0.00 | 0.00 | 0.00 | 36 | 978.8 |
| 20260508152952 | 52 | 181 | 4.0 | 5.0 | 0.00 | 0.00 | 0.00 | 36 | 978.9 |
| 20260508152452 | 52 | 235 | 3.0 | 4.0 | 0.00 | 0.00 | 0.00 | 37 | 978.8 |
| 20260508151951 | 51 | 246 | 4.0 | 7.0 | 0.00 | 0.00 | 0.00 | 36 | 978.8 |
| 20260508151451 | 52 | 275 | 8.0 | 11.0 | 0.00 | 0.00 | 0.00 | 36 | 978.8 |
| 20260508150951 | 51 | 230 | 2.0 | 4.0 | 0.00 | 0.00 | 0.00 | 38 | 978.8 |
| 20260508150451 | 51 | 216 | 2.0 | 4.0 | 0.00 | 0.00 | 0.00 | 39 | 978.9 |
| 20260508145951 | 51 | 347 | 2.0 | 5.0 | 0.00 | 0.00 | 0.00 | 42 | 978.9 |
| 20260508145450 | 51 | 325 | 5.0 | 8.0 | 0.00 | 0.00 | 0.00 | 40 | 978.9 |
| 20260508144950 | 51 | 342 | 6.0 | 8.0 | 0.00 | 0.00 | 0.00 | 38 | 979.0 |
| 20260508144449 | 50 | 300 | 4.0 | 6.0 | 0.00 | 0.00 | 0.00 | 40 | 979.0 |
| 20260508143949 | 50 | 320 | 5.0 | 7.0 | 0.00 | 0.00 | 0.00 | 37 | 979.0 |
| 20260508143449 | 50 | 307 | 5.0 | 10.0 | 0.00 | 0.00 | 0.00 | 42 | 979.0 |
| 20260508142948 | 50 | 14 | 3.0 | 5.0 | 0.00 | 0.00 | 0.00 | 44 | 979.2 |
| 20260508142448 | 49 | 261 | 2.0 | 5.0 | 0.00 | 0.00 | 0.00 | 46 | 979.1 |
| 20260508141426 | 49 | 349 | 5.0 | 8.0 | 0.00 | 0.00 | 0.00 | 48 | 979.1 |
| 20260508140925 | 49 | 341 | 3.0 | 5.0 | 0.00 | 0.00 | 0.00 | 48 | 979.2 |
| 20260508140425 | 49 | 338 | 3.0 | 6.0 | 0.00 | 0.00 | 0.00 | 43 | 979.1 |
| 20260508135924 | 49 | 337 | 5.0 | 7.0 | 0.00 | 0.00 | 0.00 | 49 | 979.2 |
| 20260508135424 | 48 | 346 | 4.0 | 5.0 | 0.00 | 0.00 | 0.00 | 52 | 979.3 |
| 20260508134923 | 49 | 295 | 3.0 | 5.0 | 0.00 | 0.00 | 0.00 | 54 | 979.2 |
| 20260508134423 | 48 | 237 | 3.0 | 4.0 | 0.00 | 0.00 | 0.00 | 55 | 979.2 |
| 20260508133922 | 48 | 343 | 5.0 | 7.0 | 0.00 | 0.00 | 0.00 | 58 | 979.2 |
| 20260508132901 | 48 | 335 | 4.0 | 5.0 | 0.00 | 0.00 | 0.00 | 58 | 979.2 |
| 20260508132401 | 47 | 284 | 4.0 | 6.0 | 0.00 | 0.00 | 0.00 | 58 | 979.2 |
| 20260508131901 | 47 | 334 | 3.0 | 6.0 | 0.00 | 0.00 | 0.00 | 61 | 979.2 |
| 20260508131400 | 47 | 291 | 4.0 | 5.0 | 0.00 | 0.00 | 0.00 | 60 | 979.1 |
| 20260508130859 | 47 | 343 | 3.0 | 5.0 | 0.00 | 0.00 | 0.00 | 60 | 979.1 |
| 20260508130359 | 46 | 342 | 4.0 | 7.0 | 0.00 | 0.00 | 0.00 | 60 | 979.1 |
| 20260508125859 | 46 | 301 | 3.0 | 6.0 | 0.00 | 0.00 | 0.00 | 61 | 979.1 |
| 20260508125359 | 46 | 41 | 3.0 | 8.0 | 0.00 | 0.00 | 0.00 | 61 | 979.0 |
| 20260508124858 | 46 | 284 | 5.0 | 7.0 | 0.00 | 0.00 | 0.00 | 64 | 979.0 |
| 20260508124358 | 46 | 335 | 6.0 | 7.0 | 0.00 | 0.00 | 0.00 | 63 | 979.0 |
| 20260508123858 | 46 | 328 | 5.0 | 7.0 | 0.00 | 0.00 | 0.00 | 65 | 979.0 |
| 20260508123357 | 46 | 317 | 3.0 | 5.0 | 0.00 | 0.00 | 0.00 | 65 | 979.1 |
| 20260508122857 | 45 | 256 | 4.0 | 6.0 | 0.00 | 0.00 | 0.00 | 66 | 979.1 |
| 20260508122357 | 45 | 286 | 4.0 | 6.0 | 0.00 | 0.00 | 0.00 | 66 | 979.1 |
| 20260508121857 | 45 | 278 | 4.0 | 5.0 | 0.00 | 0.00 | 0.00 | 67 | 979.0 |
| 20260508121356 | 45 | 263 | 4.0 | 5.0 | 0.00 | 0.00 | 0.00 | 68 | 979.0 |
| 20260508120856 | 44 | 262 | 5.0 | 6.0 | 0.00 | 0.00 | 0.00 | 68 | 979.0 |
| 20260508120355 | 44 | 246 | 3.0 | 5.0 | 0.00 | 0.00 | 0.00 | 68 | 978.9 |
| 20260508115855 | 44 | 245 | 4.0 | 5.0 | 0.00 | 0.00 | 0.00 | 68 | 978.9 |
| 20260508115354 | 44 | 255 | 3.0 | 4.0 | 0.00 | 0.00 | 0.00 | 69 | 978.9 |
| 20260508114854 | 44 | 249 | 4.0 | 5.0 | 0.00 | 0.00 | 0.00 | 70 | 978.9 |
| 20260508113832 | 44 | 255 | 3.0 | 4.0 | 0.00 | 0.00 | 0.00 | 70 | 978.8 |
| 20260508112810 | 42 | 272 | 4.0 | 5.0 | 0.00 | 0.00 | 0.00 | 71 | 978.8 |
| 20260508112310 | 41 | 247 | 3.0 | 5.0 | 0.00 | 0.00 | 0.00 | 73 | 978.8 |
| 20260508111810 | 40 | 256 | 3.0 | 3.0 | 0.00 | 0.00 | 0.00 | 76 | 978.8 |
| 20260508110748 | 39 | 252 | 2.0 | 3.0 | 0.00 | 0.00 | 0.00 | 79 | 978.8 |
| 20260508110248 | 38 | 201 | 3.0 | 3.0 | 0.00 | 0.00 | 0.00 | 81 | 978.8 |
| 20260508105748 | 38 | 214 | 1.0 | 2.0 | 0.00 | 0.00 | 0.00 | 83 | 978.8 |
| 20260508105247 | 37 | 213 | 2.0 | 2.0 | 0.00 | 0.00 | 0.00 | 83 | 978.9 |
| 20260508104747 | 37 | 207 | 2.0 | 2.0 | 0.00 | 0.00 | 0.00 | 84 | 978.8 |
| 20260508104247 | 37 | 0 | 0.0 | 0.0 | 0.00 | 0.00 | 0.00 | 83 | 978.8 |
| 20260508103747 | 37 | 0 | 0.0 | 0.0 | 0.00 | 0.00 | 0.00 | 83 | 978.8 |
| 20260508103246 | 38 | 0 | 0.0 | 0.0 | 0.00 | 0.00 | 0.00 | 82 | 978.8 |
| 20260508102746 | 38 | 0 | 0.0 | 0.0 | 0.00 | 0.00 | 0.00 | 82 | 978.8 |
| 20260508102246 | 38 | 199 | 2.0 | 2.0 | 0.00 | 0.00 | 0.00 | 82 | 978.8 |
| 20260508101746 | 38 | 212 | 2.0 | 2.0 | 0.00 | 0.00 | 0.00 | 81 | 978.7 |
| 20260508100724 | 39 | 241 | 1.0 | 1.0 | 0.00 | 0.00 | 0.00 | 81 | 978.7 |
| 20260508100224 | 39 | 0 | 0.0 | 0.0 | 0.00 | 0.00 | 0.00 | 79 | 978.7 |
| 20260508095724 | 40 | 218 | 2.0 | 2.0 | 0.00 | 0.00 | 0.00 | 78 | 978.6 |
| 20260508095224 | 40 | 243 | 1.0 | 2.0 | 0.00 | 0.00 | 0.00 | 78 | 978.7 |
| 20260508094723 | 40 | 249 | 2.0 | 2.0 | 0.00 | 0.00 | 0.00 | 79 | 978.6 |
| 20260508094223 | 40 | 271 | 1.0 | 2.0 | 0.00 | 0.00 | 0.00 | 79 | 978.5 |
| 20260508093722 | 40 | 235 | 1.0 | 2.0 | 0.00 | 0.00 | 0.00 | 78 | 978.5 |
| 20260508093222 | 40 | 219 | 1.0 | 2.0 | 0.00 | 0.00 | 0.00 | 78 | 978.5 |
| 20260508092201 | 41 | 205 | 2.0 | 3.0 | 0.00 | 0.00 | 0.00 | 78 | 978.6 |
| 20260508091140 | 41 | 211 | 2.0 | 2.0 | 0.00 | 0.00 | 0.00 | 77 | 978.7 |
| 20260508090639 | 41 | 0 | 0.0 | 0.0 | 0.00 | 0.00 | 0.00 | 77 | 978.8 |
| 20260508090139 | 41 | 0 | 0.0 | 0.0 | 0.00 | 0.00 | 0.00 | 77 | 978.6 |
| 20260508085639 | 41 | 215 | 2.0 | 2.0 | 0.00 | 0.00 | 0.00 | 76 | 978.5 |
| 20260508085139 | 41 | 203 | 2.0 | 2.0 | 0.00 | 0.00 | 0.00 | 76 | 978.6 |
| 20260508084639 | 41 | 0 | 0.0 | 0.0 | 0.00 | 0.00 | 0.00 | 76 | 978.6 |
| 20260508084139 | 41 | 0 | 0.0 | 0.0 | 0.00 | 0.00 | 0.00 | 76 | 978.7 |
| 20260508083638 | 41 | 0 | 0.0 | 0.0 | 0.00 | 0.00 | 0.00 | 75 | 978.6 |
| 20260508082617 | 41 | 195 | 1.0 | 2.0 | 0.00 | 0.00 | 0.00 | 75 | 978.4 |
| 20260508082117 | 41 | 204 | 2.0 | 3.0 | 0.00 | 0.00 | 0.00 | 74 | 978.6 |
| 20260508081056 | 41 | 0 | 0.0 | 0.0 | 0.00 | 0.00 | 0.00 | 75 | 978.7 |
| 20260508080556 | 41 | 0 | 0.0 | 0.0 | 0.00 | 0.00 | 0.00 | 75 | 978.7 |
| 20260508080055 | 41 | 170 | 1.0 | 3.0 | 0.00 | 0.00 | 0.00 | 74 | 978.7 |
| 20260508075555 | 41 | 0 | 0.0 | 0.0 | 0.00 | 0.00 | 0.00 | 75 | 978.7 |
| 20260508075055 | 41 | 180 | 0.0 | 1.0 | 0.00 | 0.00 | 0.00 | 75 | 978.8 |
| 20260508074034 | 41 | 0 | 0.0 | 0.0 | 0.00 | 0.00 | 0.00 | 75 | 978.8 |
| 20260508073534 | 41 | 236 | 2.0 | 2.0 | 0.00 | 0.00 | 0.00 | 75 | 978.8 |
| 20260508073034 | 41 | 0 | 0.0 | 0.0 | 0.00 | 0.00 | 0.00 | 75 | 978.7 |
| 20260508072533 | 41 | 0 | 0.0 | 0.0 | 0.00 | 0.00 | 0.00 | 74 | 978.7 |
| 20260508072033 | 41 | 315 | 1.0 | 2.0 | 0.00 | 0.00 | 0.00 | 74 | 978.8 |
| 20260508071533 | 41 | 0 | 0.0 | 0.0 | 0.00 | 0.00 | 0.00 | 74 | 978.6 |
| 20260508070512 | 41 | 213 | 1.0 | 1.0 | 0.00 | 0.00 | 0.00 | 73 | 978.9 |
| 20260508070012 | 41 | 330 | 2.0 | 2.0 | 0.00 | 0.00 | 0.00 | 73 | 979.0 |
| 20260508065511 | 41 | 333 | 1.0 | 2.0 | 0.00 | 0.00 | 0.00 | 73 | 979.0 |
| 20260508065010 | 41 | 351 | 1.0 | 3.0 | 0.00 | 0.00 | 0.00 | 73 | 978.9 |
| 20260508064510 | 41 | 0 | 0.0 | 0.0 | 0.00 | 0.00 | 0.00 | 72 | 978.8 |
| 20260508064010 | 41 | 9 | 2.0 | 3.0 | 0.00 | 0.00 | 0.00 | 73 | 978.9 |
| 20260508062949 | 42 | 1 | 1.0 | 2.0 | 0.00 | 0.00 | 0.00 | 73 | 979.0 |
| 20260508062449 | 42 | 8 | 2.0 | 3.0 | 0.00 | 0.00 | 0.00 | 73 | 979.0 |
| 20260508061948 | 42 | 14 | 1.0 | 2.0 | 0.00 | 0.00 | 0.00 | 73 | 979.0 |
| 20260508061447 | 41 | 0 | 1.0 | 3.0 | 0.00 | 0.00 | 0.00 | 72 | 979.0 |
| 20260508060947 | 42 | 0 | 0.0 | 0.0 | 0.00 | 0.00 | 0.00 | 71 | 979.1 |
| 20260508060446 | 42 | 0 | 0.0 | 0.0 | 0.00 | 0.00 | 0.00 | 70 | 979.2 |
| 20260508055946 | 42 | 0 | 0.0 | 0.0 | 0.00 | 0.00 | 0.00 | 70 | 979.2 |
| 20260508055446 | 42 | 0 | 0.0 | 0.0 | 0.00 | 0.00 | 0.00 | 69 | 979.2 |
| 20260508054946 | 42 | 209 | 2.0 | 2.0 | 0.00 | 0.00 | 0.00 | 69 | 979.2 |
| 20260508054446 | 42 | 174 | 1.0 | 2.0 | 0.00 | 0.00 | 0.00 | 68 | 979.3 |
| 20260508053946 | 42 | 336 | 1.0 | 2.0 | 0.00 | 0.00 | 0.00 | 70 | 979.4 |
| 20260508052925 | 42 | 71 | 1.0 | 2.0 | 0.00 | 0.00 | 0.00 | 67 | 979.5 |
| 20260508052425 | 42 | 178 | 1.0 | 2.0 | 0.00 | 0.00 | 0.00 | 70 | 979.6 |
| 20260508051403 | 42 | 284 | 2.0 | 2.0 | 0.00 | 0.00 | 0.00 | 69 | 979.6 |
| 20260508050903 | 42 | 0 | 0.0 | 0.0 | 0.00 | 0.00 | 0.00 | 70 | 979.6 |
| 20260508050403 | 42 | 249 | 0.0 | 1.0 | 0.00 | 0.00 | 0.00 | 71 | 979.5 |
| 20260508045903 | 42 | 229 | 2.0 | 2.0 | 0.00 | 0.00 | 0.00 | 70 | 979.5 |
| 20260508044842 | 42 | 252 | 1.0 | 2.0 | 0.00 | 0.00 | 0.00 | 71 | 979.4 |
| 20260508044341 | 42 | 230 | 1.0 | 2.0 | 0.00 | 0.00 | 0.00 | 70 | 979.4 |
| 20260508043841 | 42 | 0 | 0.0 | 0.0 | 0.00 | 0.00 | 0.00 | 70 | 979.4 |
| 20260508043341 | 42 | 200 | 2.0 | 3.0 | 0.00 | 0.00 | 0.00 | 70 | 979.3 |
| 20260508042841 | 42 | 183 | 2.0 | 3.0 | 0.00 | 0.00 | 0.00 | 69 | 979.4 |
| 20260508042341 | 42 | 198 | 2.0 | 2.0 | 0.00 | 0.00 | 0.00 | 70 | 979.4 |
| 20260508041841 | 42 | 173 | 1.0 | 2.0 | 0.00 | 0.00 | 0.00 | 71 | 979.4 |
| 20260508041340 | 41 | 184 | 3.0 | 4.0 | 0.00 | 0.00 | 0.00 | 73 | 979.5 |
| 20260508040839 | 41 | 245 | 2.0 | 3.0 | 0.00 | 0.00 | 0.00 | 73 | 979.5 |
| 20260508040339 | 41 | 133 | 1.0 | 2.0 | 0.00 | 0.00 | 0.00 | 72 | 979.4 |
| 20260508035839 | 41 | 216 | 2.0 | 2.0 | 0.00 | 0.00 | 0.00 | 73 | 979.4 |
| 20260508034817 | 40 | 0 | 0.0 | 0.0 | 0.00 | 0.00 | 0.00 | 72 | 979.3 |
| 20260508034317 | 40 | 233 | 1.0 | 2.0 | 0.00 | 0.00 | 0.00 | 72 | 979.3 |
| 20260508033817 | 40 | 0 | 0.0 | 0.0 | 0.00 | 0.00 | 0.00 | 72 | 979.2 |
| 20260508033316 | 40 | 201 | 2.0 | 2.0 | 0.00 | 0.00 | 0.00 | 73 | 979.3 |
| 20260508032816 | 40 | 293 | 1.0 | 2.0 | 0.00 | 0.00 | 0.00 | 73 | 979.3 |
| 20260508032316 | 40 | 0 | 0.0 | 0.0 | 0.00 | 0.00 | 0.00 | 74 | 979.2 |
| 20260508031815 | 40 | 238 | 2.0 | 2.0 | 0.00 | 0.00 | 0.00 | 73 | 979.1 |
| 20260508031315 | 39 | 188 | 3.0 | 3.0 | 0.00 | 0.00 | 0.00 | 73 | 979.2 |
| 20260508030815 | 39 | 0 | 0.0 | 0.0 | 0.00 | 0.00 | 0.00 | 72 | 979.2 |
| 20260508030315 | 40 | 0 | 0.0 | 0.0 | 0.00 | 0.00 | 0.00 | 72 | 979.2 |
| 20260508025814 | 40 | 0 | 0.0 | 0.0 | 0.00 | 0.00 | 0.00 | 72 | 979.2 |
| 20260508025314 | 40 | 192 | 2.0 | 2.0 | 0.00 | 0.00 | 0.00 | 71 | 979.4 |
| 20260508024812 | 40 | 247 | 2.0 | 2.0 | 0.00 | 0.00 | 0.00 | 72 | 979.4 |
| 20260508024312 | 40 | 0 | 0.0 | 0.0 | 0.00 | 0.00 | 0.00 | 72 | 979.4 |
| 20260508023812 | 40 | 275 | 1.0 | 2.0 | 0.00 | 0.00 | 0.00 | 71 | 979.4 |
| 20260508023312 | 40 | 0 | 0.0 | 0.0 | 0.00 | 0.00 | 0.00 | 72 | 979.3 |
| 20260508022251 | 40 | 0 | 0.0 | 0.0 | 0.00 | 0.00 | 0.00 | 72 | 979.2 |
| 20260508021750 | 40 | 251 | 1.0 | 1.0 | 0.00 | 0.00 | 0.00 | 72 | 979.2 |
| 20260508021249 | 40 | 0 | 0.0 | 0.0 | 0.00 | 0.00 | 0.00 | 73 | 979.2 |
| 20260508020749 | 39 | 0 | 0.0 | 0.0 | 0.00 | 0.00 | 0.00 | 73 | 979.1 |
| 20260508020249 | 40 | 0 | 0.0 | 0.0 | 0.00 | 0.00 | 0.00 | 72 | 979.1 |
| 20260508014707 | 40 | 272 | 1.0 | 1.0 | 0.00 | 0.00 | 0.00 | 72 | 979.1 |
| 20260508014207 | 40 | 0 | 0.0 | 0.0 | 0.00 | 0.00 | 0.00 | 71 | 979.0 |
| 20260508013707 | 41 | 0 | 0.0 | 0.0 | 0.00 | 0.00 | 0.00 | 69 | 979.0 |
| 20260508013206 | 41 | 0 | 0.0 | 0.0 | 0.00 | 0.00 | 0.00 | 69 | 979.1 |
| 20260508012145 | 42 | 0 | 0.0 | 0.0 | 0.00 | 0.00 | 0.00 | 67 | 979.0 |
| 20260508011645 | 43 | 0 | 0.0 | 0.0 | 0.00 | 0.00 | 0.00 | 66 | 978.9 |
| 20260508011144 | 43 | 0 | 0.0 | 0.0 | 0.00 | 0.00 | 0.00 | 65 | 978.9 |
| 20260508010644 | 44 | 0 | 0.0 | 0.0 | 0.00 | 0.00 | 0.00 | 64 | 978.8 |
| 20260508010143 | 44 | 0 | 0.0 | 0.0 | 0.00 | 0.00 | 0.00 | 62 | 978.7 |
| 20260508005643 | 44 | 0 | 0.0 | 0.0 | 0.00 | 0.00 | 0.00 | 61 | 978.6 |
| 20260508005141 | 45 | 230 | 1.0 | 2.0 | 0.00 | 0.00 | 0.00 | 60 | 978.7 |
| 20260508004641 | 45 | 338 | 2.0 | 3.0 | 0.00 | 0.00 | 0.00 | 59 | 978.8 |
| 20260508004141 | 45 | 348 | 3.0 | 4.0 | 0.00 | 0.00 | 0.00 | 58 | 978.7 |
| 20260508003641 | 46 | 307 | 2.0 | 3.0 | 0.00 | 0.00 | 0.00 | 58 | 978.7 |
| 20260508003141 | 46 | 354 | 1.0 | 5.0 | 0.00 | 0.00 | 0.00 | 57 | 978.5 |
| 20260508002641 | 46 | 344 | 3.0 | 4.0 | 0.00 | 0.00 | 0.00 | 56 | 978.5 |
| 20260508002140 | 47 | 250 | 1.0 | 2.0 | 0.00 | 0.00 | 0.00 | 56 | 978.4 |
| 20260508001640 | 47 | 332 | 2.0 | 3.0 | 0.00 | 0.00 | 0.00 | 55 | 978.3 |
| 20260508001140 | 48 | 333 | 3.0 | 5.0 | 0.00 | 0.00 | 0.00 | 54 | 978.3 |
| 20260508000118 | 48 | 346 | 3.0 | 5.0 | 0.00 | 0.00 | 0.00 | 52 | 978.1 |
| 20260507235618 | 48 | 334 | 3.0 | 5.0 | 0.00 | 0.00 | 0.00 | 52 | 978.1 |
| 20260507235118 | 48 | 348 | 4.0 | 6.0 | 0.00 | 0.00 | 0.00 | 51 | 978.1 |
| 20260507234617 | 49 | 343 | 5.0 | 6.0 | 0.00 | 0.00 | 0.00 | 51 | 978.2 |
| 20260507234116 | 49 | 349 | 5.0 | 8.0 | 0.00 | 0.00 | 0.00 | 50 | 978.1 |
| 20260507233616 | 49 | 340 | 5.0 | 7.0 | 0.00 | 0.00 | 0.00 | 50 | 978.2 |
| 20260507233115 | 49 | 342 | 4.0 | 5.0 | 0.00 | 0.00 | 0.00 | 50 | 978.2 |
| 20260507232615 | 49 | 322 | 6.0 | 9.0 | 0.00 | 0.00 | 0.00 | 49 | 978.1 |
| 20260507232115 | 50 | 356 | 4.0 | 7.0 | 0.00 | 0.00 | 0.00 | 49 | 978.0 |
| 20260507231615 | 50 | 332 | 4.0 | 7.0 | 0.00 | 0.00 | 0.00 | 48 | 978.1 |
| 20260507231115 | 50 | 9 | 2.0 | 4.0 | 0.00 | 0.00 | 0.00 | 49 | 978.1 |
| 20260507230614 | 49 | 316 | 6.0 | 8.0 | 0.00 | 0.00 | 0.00 | 49 | 978.0 |
| 20260507225553 | 49 | 352 | 6.0 | 9.0 | 0.00 | 0.00 | 0.00 | 49 | 978.1 |
| 20260507224532 | 49 | 317 | 3.0 | 4.0 | 0.00 | 0.00 | 0.00 | 51 | 978.1 |
| 20260507224031 | 49 | 338 | 6.0 | 8.0 | 0.00 | 0.00 | 0.00 | 52 | 978.1 |
| 20260507223531 | 49 | 322 | 3.0 | 4.0 | 0.00 | 0.00 | 0.00 | 54 | 978.2 |
| 20260507223031 | 49 | 308 | 3.0 | 4.0 | 0.00 | 0.00 | 0.00 | 53 | 978.3 |
| 20260507222009 | 50 | 328 | 6.0 | 8.0 | 0.00 | 0.00 | 0.00 | 50 | 978.2 |
| 20260507221509 | 49 | 350 | 4.0 | 6.0 | 0.00 | 0.00 | 0.00 | 52 | 978.2 |
| 20260507220447 | 48 | 338 | 4.0 | 7.0 | 0.00 | 0.00 | 0.00 | 55 | 978.3 |
| 20260507215947 | 48 | 303 | 4.0 | 6.0 | 0.00 | 0.00 | 0.00 | 55 | 978.3 |
| 20260507214926 | 47 | 322 | 5.0 | 8.0 | 0.00 | 0.00 | 0.00 | 57 | 978.4 |
| 20260507214425 | 47 | 328 | 6.0 | 8.0 | 0.00 | 0.00 | 0.00 | 58 | 978.4 |
| 20260507213924 | 47 | 342 | 4.0 | 7.0 | 0.00 | 0.00 | 0.00 | 57 | 978.3 |
| 20260507212902 | 47 | 0 | 4.0 | 8.0 | 0.00 | 0.00 | 0.00 | 57 | 978.2 |
| 20260507212402 | 47 | 21 | 5.0 | 7.0 | 0.00 | 0.00 | 0.00 | 56 | 978.2 |
| 20260507210259 | 48 | 354 | 6.0 | 9.0 | 0.00 | 0.00 | 0.00 | 55 | 978.1 |
| 20260507205758 | 48 | 340 | 6.0 | 8.0 | 0.00 | 0.00 | 0.00 | 55 | 978.0 |
| 20260507205257 | 48 | 348 | 7.0 | 9.0 | 0.00 | 0.00 | 0.00 | 55 | 978.0 |
| 20260507204757 | 48 | 8 | 4.0 | 9.0 | 0.00 | 0.00 | 0.00 | 57 | 977.9 |
| 20260507204257 | 48 | 19 | 3.0 | 4.0 | 0.00 | 0.00 | 0.00 | 56 | 977.9 |
| 20260507203757 | 48 | 315 | 3.0 | 4.0 | 0.00 | 0.00 | 0.00 | 57 | 977.9 |
| 20260507203257 | 48 | 347 | 2.0 | 4.0 | 0.00 | 0.00 | 0.00 | 56 | 977.9 |
| 20260507202757 | 48 | 319 | 4.0 | 6.0 | 0.00 | 0.00 | 0.00 | 55 | 977.9 |